CW3590 Weather Reports


Display with metric or nautical units.
time (UTC)temp
F
wind
direction
speed
MPH
gust
MPH
rain 1hr
in
rain 24hr
in
rain mn
in
humidity
%
barometer
mb
20260901024007 88 0 0.0 1.0 0.00 0.00 0.00 57 1013.7
20260901022007 89 0 0.0 1.0 0.00 0.00 0.00 56 1013.4
20260901021007 89 0 0.0 0.0 0.00 0.00 0.00 55 1013.4
20260901015008 90 0 0.0 0.0 0.00 0.00 0.00 54 1013.2
20260901012007 91 0 0.0 0.0 0.00 0.00 0.00 51 1013.1
20260901011007 91 0 0.0 0.0 0.00 0.00 0.00 52 1013.1
20260901010007 91 0 0.0 0.0 0.00 0.00 0.00 51 1013.0
20260901004008 92 0 0.0 2.0 0.00 0.00 0.00 50 1013.0
20260901003008 93 114 1.0 1.0 0.00 0.00 0.00 48 1012.9
20260901002007 93 99 1.0 2.0 0.00 0.00 0.00 47 1012.8
20260901001007 94 93 1.0 5.0 0.00 0.00 0.00 46 1012.8
20260901000007 95 157 2.0 5.0 0.00 0.00 0.00 45 1012.6
20260831235007 95 123 1.0 5.0 0.00 0.00 0.00 44 1012.6
20260831234007 96 134 1.0 3.0 0.00 0.00 0.00 44 1012.6
20260831233007 96 156 1.0 2.0 0.00 0.00 0.00 41 1012.5
20260831232007 96 144 1.0 3.0 0.00 0.00 0.00 41 1012.5
20260831231007 97 65 1.0 6.0 0.00 0.00 0.00 43 1012.5
20260831230007 97 100 1.0 3.0 0.00 0.00 0.00 43 1012.5
20260831225008 97 87 1.0 7.0 0.00 0.00 0.00 40 1012.6
20260831224007 97 103 1.0 4.0 0.00 0.00 0.00 39 1012.7
20260831223008 98 136 1.0 2.0 0.00 0.00 0.00 39 1012.7
20260831221007 98 80 2.0 6.0 0.00 0.00 0.00 40 1012.7
20260831213007 100 67 2.0 10.0 0.00 0.00 0.00 37 1013.1
20260831212006 100 80 2.0 8.0 0.00 0.00 0.00 40 1013.1
20260831211007 99 69 2.0 7.0 0.00 0.00 0.00 39 1013.1
20260831205007 98 39 2.0 7.0 0.00 0.00 0.00 40 1013.4
20260831204007 98 69 2.0 4.0 0.00 0.00 0.00 39 1013.6
20260831203008 98 100 2.0 4.0 0.00 0.00 0.00 39 1013.9
20260831200007 98 61 2.0 9.0 0.00 0.00 0.00 44 1014.3
20260831193006 96 29 3.0 8.0 0.00 0.00 0.00 44 1014.7
20260831192007 96 64 2.0 7.0 0.00 0.00 0.00 48 1014.7
20260831185007 95 58 1.0 6.0 0.00 0.00 0.00 48 1015.1
20260831184007 94 74 3.0 7.0 0.00 0.00 0.00 48 1015.3
20260831183006 96 154 1.0 7.0 0.00 0.00 0.00 46 1015.4
20260831182007 94 159 2.0 7.0 0.00 0.00 0.00 51 1015.4
20260831181007 94 101 3.0 8.0 0.00 0.00 0.00 50 1015.6
20260831180009 94 121 2.0 8.0 0.00 0.00 0.00 50 1015.6
20260831174007 94 198 2.0 4.0 0.00 0.00 0.00 52 1016.0
20260831173007 93 41 3.0 6.0 0.00 0.00 0.00 51 1016.2
20260831172006 93 75 1.0 6.0 0.00 0.00 0.00 53 1016.3
20260831171007 90 36 2.0 7.0 0.00 0.00 0.00 57 1016.5
20260831170006 89 243 1.0 3.0 0.00 0.00 0.00 58 1016.5
20260831165006 89 349 1.0 5.0 0.00 0.00 0.00 58 1016.7
20260831164006 88 265 1.0 6.0 0.00 0.00 0.00 59 1016.8
20260831163007 87 264 2.0 3.0 0.00 0.00 0.00 62 1016.8
20260831162006 87 259 3.0 7.0 0.00 0.00 0.00 62 1016.8
20260831161006 86 252 1.0 8.0 0.00 0.00 0.00 62 1016.9
20260831160006 85 227 2.0 4.0 0.00 0.00 0.00 63 1016.9
20260831155007 84 269 2.0 5.0 0.00 0.00 0.00 65 1016.8
20260831154008 84 80 1.0 4.0 0.00 0.00 0.00 66 1016.8
20260831152007 82 299 2.0 6.0 0.00 0.00 0.00 71 1016.7
20260831151007 82 269 2.0 8.0 0.00 0.00 0.00 74 1016.5
20260831150007 81 190 1.0 2.0 0.00 0.00 0.00 76 1016.5
20260831145007 80 198 1.0 4.0 0.00 0.00 0.00 78 1016.4
20260831144006 80 264 1.0 3.0 0.00 0.00 0.00 80 1016.6
20260831142007 79 132 1.0 4.0 0.00 0.00 0.00 82 1016.4
20260831141008 78 95 1.0 3.0 0.00 0.00 0.00 82 1016.3
20260831140007 78 73 1.0 3.0 0.00 0.00 0.00 83 1016.3
20260831135007 77 92 1.0 3.0 0.00 0.00 0.00 82 1016.3
20260831134006 77 178 0.0 3.0 0.00 0.00 0.00 82 1016.3
20260831133007 77 0 0.0 1.0 0.00 0.00 0.00 81 1016.2
20260831132006 77 0 0.0 0.0 0.00 0.00 0.00 80 1016.0
20260831131006 77 0 0.0 0.0 0.00 0.00 0.00 78 1015.9
20260831125006 77 0 0.0 1.0 0.00 0.00 0.00 77 1015.6
20260831124006 77 0 0.0 1.0 0.00 0.00 0.00 77 1015.5
20260831122006 78 0 0.0 1.0 0.00 0.00 0.00 77 1015.2
20260831120006 78 257 1.0 2.0 0.00 0.00 0.00 78 1015.1
20260831114006 77 242 1.0 5.0 0.00 0.00 0.00 78 1014.5
20260831113006 77 241 1.0 4.0 0.00 0.00 0.00 78 1014.4
20260831112005 77 223 0.0 3.0 0.00 0.00 0.00 78 1014.4
20260831111006 77 0 0.0 2.0 0.00 0.00 0.00 77 1014.5
20260831110006 77 0 0.0 3.0 0.00 0.00 0.00 77 1014.6
20260831105006 77 0 0.0 3.0 0.00 0.00 0.00 76 1014.6
20260831104006 77 0 0.0 0.0 0.00 0.00 0.00 75 1014.6
20260831103005 77 0 0.0 0.0 0.00 0.00 0.00 75 1014.6
20260831102006 77 0 0.0 0.0 0.00 0.00 0.00 74 1014.5
20260831100006 78 0 0.0 0.0 0.00 0.00 0.00 73 1014.3
20260831095006 78 0 0.0 0.0 0.00 0.00 0.00 73 1014.4
20260831094006 78 0 0.0 0.0 0.00 0.00 0.00 72 1014.3
20260831093006 78 0 0.0 1.0 0.00 0.00 0.00 72 1014.4
20260831092006 78 0 0.0 1.0 0.00 0.00 0.00 72 1014.3
20260831090006 79 0 0.0 2.0 0.00 0.00 0.00 71 1014.3
20260831084006 80 0 0.0 2.0 0.00 0.00 0.00 70 1014.2
20260831083006 80 0 0.0 0.0 0.00 0.00 0.00 69 1014.2
20260831082005 80 0 0.0 0.0 0.00 0.00 0.00 68 1014.1
20260831081006 81 0 0.0 0.0 0.00 0.00 0.00 68 1014.2
20260831080006 81 0 0.0 0.0 0.00 0.00 0.00 67 1014.2
20260831075005 81 0 0.0 0.0 0.00 0.00 0.00 67 1014.3
20260831074006 81 0 0.0 1.0 0.00 0.00 0.00 66 1014.1
20260831073006 81 0 0.0 1.0 0.00 0.00 0.00 66 1014.1
20260831072006 82 0 0.0 2.0 0.00 0.00 0.00 66 1014.1
20260831071006 82 0 0.0 1.0 0.00 0.00 0.00 65 1014.3
20260831070005 82 0 0.0 2.0 0.00 0.00 0.00 65 1014.3
20260831064006 82 0 0.0 1.0 0.00 0.00 0.00 64 1014.3
20260831063005 82 152 0.0 1.0 0.00 0.00 0.00 64 1014.4
20260831062007 82 147 1.0 2.0 0.00 0.00 0.00 64 1014.4
20260831061007 82 144 1.0 2.0 0.00 0.00 0.00 64 1014.2
20260831060005 82 161 1.0 2.0 0.00 0.00 0.00 64 1014.1
20260831055005 81 173 1.0 2.0 0.00 0.00 0.00 66 1014.0
20260831054005 81 175 0.0 2.0 0.00 0.00 0.00 65 1014.0
20260831053006 82 0 0.0 1.0 0.00 0.00 0.00 67 1014.0
20260831052006 82 0 0.0 1.0 0.00 0.00 0.00 66 1014.1
20260831050008 82 0 0.0 0.0 0.00 0.00 0.00 65 1013.8
20260831045005 82 0 0.0 0.0 0.00 0.00 0.00 64 1013.8
20260831044007 82 0 0.0 0.0 0.00 0.00 0.00 65 1013.9
20260831043005 82 0 0.0 0.0 0.00 0.00 0.00 65 1013.8
20260831042006 82 0 0.0 0.0 0.00 0.00 0.00 65 1013.7
20260831041006 83 0 0.0 1.0 0.00 0.00 0.00 65 1013.6
20260831040006 83 0 0.0 1.0 0.00 0.00 0.00 63 1013.6
20260831035006 83 0 0.0 0.0 0.00 0.00 0.00 63 1013.5
20260831034005 84 0 0.0 0.0 0.00 0.00 0.00 62 1013.4
20260831033006 84 0 0.0 0.0 0.00 0.00 0.00 60 1013.1
20260831032005 84 0 0.0 0.0 0.00 0.00 0.00 61 1013.1
20260831031007 85 0 0.0 0.0 0.00 0.00 0.00 60 1013.0
20260831030007 85 0 0.0 0.0 0.00 0.00 0.00 60 1012.8
20260831025005 86 0 0.0 1.0 0.00 0.00 0.00 60 1012.8